GW4872 Weather Reports


time (UTC)temp
C
wind
direction
speed
KPH
gust
KPH
rain 1hr
cm
rain 24hr
cm
rain mn
cm
humidity
%
barometer
mb
20260504234932 20 10 19.3 29.0 0.00 0.00 0.00 35 1005.4
20260504234430 20 6 20.9 33.8 0.00 0.00 0.00 35 1005.3
20260504233926 20 312 17.7 24.1 0.00 0.00 0.00 35 1005.4
20260504233422 21 317 16.1 27.4 0.00 0.00 0.00 34 1005.3
20260504232919 21 350 11.3 20.9 0.00 0.00 0.00 34 1005.1
20260504232417 21 7 19.3 29.0 0.00 0.00 0.00 33 1004.9
20260504231914 21 273 16.1 27.4 0.00 0.00 0.00 33 1005.0
20260504231409 22 12 12.9 24.1 0.00 0.00 0.00 33 1004.7
20260504230906 22 0 17.7 25.7 0.00 0.00 0.00 32 1004.9
20260504230403 22 344 14.5 24.1 0.00 0.00 0.00 32 1004.8
20260504225902 22 334 17.7 25.7 0.00 0.00 0.00 32 1004.4
20260504225358 22 71 9.7 25.7 0.00 0.00 0.00 32 1004.3
20260504224856 22 346 14.5 22.5 0.00 0.00 0.00 32 1004.1
20260504224352 22 73 16.1 25.7 0.00 0.00 0.00 32 1004.0
20260504223849 22 31 17.7 27.4 0.00 0.00 0.00 32 1004.0
20260504223344 23 4 20.9 30.6 0.00 0.00 0.00 32 1003.8
20260504222841 23 18 20.9 27.4 0.00 0.00 0.00 32 1003.8
20260504222338 23 8 17.7 25.7 0.00 0.00 0.00 32 1003.6
20260504221837 23 46 16.1 25.7 0.00 0.00 0.00 31 1003.5
20260504221333 23 12 17.7 37.0 0.00 0.00 0.00 32 1003.6
20260504220830 24 324 16.1 25.7 0.00 0.00 0.00 32 1003.4
20260504220327 24 359 11.3 25.7 0.00 0.00 0.00 32 1003.0
20260504215824 24 1 14.5 22.5 0.00 0.00 0.00 32 1003.2
20260504215320 24 26 20.9 29.0 0.00 0.00 0.00 31 1003.2
20260504214816 24 50 11.3 25.7 0.00 0.00 0.00 32 1002.9
20260504214314 25 254 14.5 24.1 0.00 0.00 0.00 32 1003.1
20260504213810 25 37 9.7 24.1 0.00 0.00 0.00 32 1002.9
20260504213306 25 86 12.9 17.7 0.00 0.00 0.00 32 1003.1
20260504212804 25 26 12.9 20.9 0.00 0.00 0.00 32 1002.9
20260504212300 25 3 11.3 25.7 0.00 0.00 0.00 33 1003.0
20260504211758 25 356 12.9 22.5 0.00 0.00 0.00 33 1003.0
20260504211253 25 353 14.5 17.7 0.00 0.00 0.00 33 1003.0
20260504210751 25 56 11.3 22.5 0.00 0.00 0.00 34 1003.0
20260504210248 25 356 8.0 30.6 0.00 0.00 0.00 35 1002.7
20260504205745 25 77 16.1 22.5 0.00 0.00 0.00 34 1002.7
20260504205243 25 1 12.9 24.1 0.00 0.00 0.00 35 1002.7
20260504204741 25 319 11.3 16.1 0.00 0.00 0.00 35 1002.7
20260504204239 25 89 9.7 20.9 0.00 0.00 0.00 35 1002.7
20260504203738 25 266 9.7 17.7 0.00 0.00 0.00 36 1002.7
20260504203235 25 10 8.0 22.5 0.00 0.00 0.00 36 1002.6
20260504202735 26 48 11.3 16.1 0.00 0.00 0.00 36 1002.6
20260504202232 25 90 11.3 17.7 0.00 0.00 0.00 38 1002.5
20260504201729 26 61 14.5 25.7 0.00 0.00 0.00 36 1002.7
20260504201226 26 345 11.3 22.5 0.00 0.00 0.00 36 1002.6
20260504200724 26 3 20.9 27.4 0.00 0.00 0.00 36 1002.6
20260504200220 26 15 12.9 20.9 0.00 0.00 0.00 36 1002.6
20260504195716 26 326 11.3 27.4 0.00 0.00 0.00 35 1002.5
20260504195212 26 36 9.7 24.1 0.00 0.00 0.00 36 1002.4
20260504194710 26 120 9.7 17.7 0.00 0.00 0.00 36 1002.6
20260504194206 26 1 12.9 22.5 0.00 0.00 0.00 37 1002.6
20260504193702 26 345 9.7 20.9 0.00 0.00 0.00 35 1002.3
20260504193200 26 45 8.0 20.9 0.00 0.00 0.00 35 1002.3
20260504192658 26 91 4.8 24.1 0.00 0.00 0.00 35 1002.2
20260504192156 26 99 8.0 16.1 0.00 0.00 0.00 34 1002.3
20260504191654 26 198 11.3 27.4 0.00 0.00 0.00 34 1002.1
20260504191150 26 324 4.8 17.7 0.00 0.00 0.00 35 1002.2
20260504190646 26 73 8.0 16.1 0.00 0.00 0.00 34 1002.1
20260504190143 27 252 8.0 20.9 0.00 0.00 0.00 33 1002.3
20260504185639 27 275 4.8 12.9 0.00 0.00 0.00 33 1002.0
20260504185136 27 15 8.0 22.5 0.00 0.00 0.00 32 1001.8
20260504184632 27 198 1.6 14.5 0.00 0.00 0.00 32 1001.9
20260504184127 27 64 11.3 20.9 0.00 0.00 0.00 33 1001.9
20260504183624 27 10 6.4 12.9 0.00 0.00 0.00 32 1001.6
20260504183122 27 8 9.7 22.5 0.00 0.00 0.00 32 1002.0
20260504182619 26 321 11.3 14.5 0.00 0.00 0.00 33 1001.9
20260504182117 26 359 6.4 25.7 0.00 0.00 0.00 32 1002.0
20260504181614 26 13 6.4 20.9 0.00 0.00 0.00 33 1001.8
20260504181111 27 305 8.0 22.5 0.00 0.00 0.00 33 1002.0
20260504180610 27 318 4.8 11.3 0.00 0.00 0.00 32 1001.9
20260504180109 27 59 11.3 14.5 0.00 0.00 0.00 31 1001.9
20260504175606 27 291 6.4 14.5 0.00 0.00 0.00 32 1002.0
20260504175102 27 345 11.3 20.9 0.00 0.00 0.00 32 1002.0
20260504174600 27 72 1.6 6.4 0.00 0.00 0.00 32 1002.1
20260504174057 27 239 9.7 16.1 0.00 0.00 0.00 32 1002.2
20260504173553 26 166 1.6 11.3 0.00 0.00 0.00 34 1002.1
20260504173051 26 189 4.8 16.1 0.00 0.00 0.00 33 1002.2
20260504172547 26 1 4.8 14.5 0.00 0.00 0.00 34 1002.1
20260504172044 26 323 11.3 16.1 0.00 0.00 0.00 33 1002.3
20260504171541 26 252 8.0 24.1 0.00 0.00 0.00 33 1002.1
20260504171038 26 292 9.7 20.9 0.00 0.00 0.00 34 1002.3
20260504170533 25 194 4.8 9.7 0.00 0.00 0.00 37 1002.2
20260504150917 21 209 6.4 9.7 0.00 0.00 0.00 43 1002.3
20260504150414 21 201 3.2 6.4 0.00 0.00 0.00 43 1002.4
20260504140841 17 42 6.4 9.7 0.00 0.00 0.00 51 1003.0
20260504140336 17 116 0.0 0.0 0.00 0.00 0.00 53 1002.9
20260504130805 12 128 3.2 6.4 0.00 0.00 0.00 72 1002.8
20260504130301 12 111 3.2 3.2 0.00 0.00 0.00 73 1003.0
20260504120225 8 168 0.0 0.0 0.00 0.00 0.00 86 1002.7
20260504110652 8 153 0.0 0.0 0.00 0.00 0.00 84 1002.9
20260504110149 8 165 0.0 0.0 0.00 0.00 0.00 85 1003.0
20260504100615 8 167 0.0 0.0 0.00 0.00 0.00 85 1003.1
20260504100113 8 167 0.0 0.0 0.00 0.00 0.00 85 1003.0
20260504081506 10 167 0.0 0.0 0.00 0.00 0.00 80 1004.3
20260504081001 10 167 0.0 0.0 0.00 0.00 0.00 80 1004.6
20260504080458 10 165 0.0 0.0 0.00 0.00 0.00 80 1004.3
20260504050311 12 167 0.0 0.0 0.00 0.00 0.00 66 1007.0
20260504045808 13 167 0.0 0.0 0.00 0.00 0.00 65 1006.9
20260504045308 13 167 0.0 0.0 0.00 0.00 0.00 65 1006.9
20260504044806 13 169 0.0 0.0 0.00 0.00 0.00 64 1007.0
20260504044303 13 167 0.0 0.0 0.00 0.00 0.00 65 1007.0
20260504043800 13 167 0.0 0.0 0.00 0.00 0.00 63 1007.3
20260504043257 13 167 0.0 0.0 0.00 0.00 0.00 63 1007.0
20260504042755 14 167 0.0 0.0 0.00 0.00 0.00 62 1007.2
20260504042251 14 167 0.0 0.0 0.00 0.00 0.00 62 1007.0
20260504041747 14 168 0.0 0.0 0.00 0.00 0.00 62 1007.2
20260504041243 15 167 0.0 0.0 0.00 0.00 0.00 62 1007.2
20260504040739 15 167 0.0 0.0 0.00 0.00 0.00 61 1007.4
20260504040237 15 166 0.0 0.0 0.00 0.00 0.00 60 1007.6
20260504035733 15 168 0.0 0.0 0.00 0.00 0.00 60 1007.4
20260504035231 15 169 0.0 0.0 0.00 0.00 0.00 59 1007.6
20260504034728 15 166 0.0 0.0 0.00 0.00 0.00 58 1007.6
20260504034225 15 165 0.0 0.0 0.00 0.00 0.00 58 1007.8
20260504033723 15 165 0.0 0.0 0.00 0.00 0.00 57 1007.7
20260504033220 15 168 0.0 0.0 0.00 0.00 0.00 57 1007.9
20260504032717 16 166 0.0 0.0 0.00 0.00 0.00 56 1007.7
20260504032214 16 167 0.0 0.0 0.00 0.00 0.00 55 1007.8
20260504031711 16 168 0.0 0.0 0.00 0.00 0.00 54 1007.8
20260504031208 16 167 0.0 0.0 0.00 0.00 0.00 53 1008.0
20260504030704 16 168 0.0 0.0 0.00 0.00 0.00 52 1008.0
20260504030201 16 170 0.0 0.0 0.00 0.00 0.00 52 1008.0
20260504025657 16 169 0.0 0.0 0.00 0.00 0.00 52 1008.0
20260504025154 16 165 0.0 0.0 0.00 0.00 0.00 52 1008.0
20260504024652 16 167 0.0 0.0 0.00 0.00 0.00 51 1007.9
20260504024148 17 167 0.0 0.0 0.00 0.00 0.00 51 1008.0
20260504023645 17 169 0.0 0.0 0.00 0.00 0.00 50 1007.9
20260504023141 17 166 0.0 0.0 0.00 0.00 0.00 50 1007.8
20260504022637 17 167 0.0 0.0 0.00 0.00 0.00 49 1008.0
20260504022133 17 168 0.0 0.0 0.00 0.00 0.00 48 1008.1
20260504021631 18 170 0.0 0.0 0.00 0.00 0.00 48 1008.1
20260504021127 18 170 0.0 0.0 0.00 0.00 0.00 47 1008.0
20260504020625 18 170 0.0 0.0 0.00 0.00 0.00 47 1008.1
20260504020120 18 170 0.0 0.0 0.00 0.00 0.00 46 1008.2
20260504015617 18 171 0.0 0.0 0.00 0.00 0.00 46 1008.1
20260504015114 18 169 0.0 0.0 0.00 0.00 0.00 45 1008.3
20260504014609 18 167 0.0 0.0 0.00 0.00 0.00 45 1008.2
20260504014107 19 170 0.0 0.0 0.00 0.00 0.00 44 1008.3
20260504013604 20 167 0.0 0.0 0.00 0.00 0.00 44 1008.3
20260504013101 20 170 0.0 0.0 0.00 0.00 0.00 42 1008.3
20260504012558 20 171 0.0 0.0 0.00 0.00 0.00 41 1008.2
20260504012056 20 170 0.0 1.6 0.00 0.00 0.00 40 1008.2
20260504011553 21 171 0.0 0.0 0.00 0.00 0.00 40 1008.2
20260504011049 21 165 0.0 0.0 0.00 0.00 0.00 39 1008.2
20260504010545 21 168 0.0 0.0 0.00 0.00 0.00 38 1008.4
20260504010041 21 171 0.0 0.0 0.00 0.00 0.00 39 1008.4
20260504005538 21 177 0.0 1.6 0.00 0.00 0.00 39 1008.4
20260504005035 22 179 0.0 0.0 0.00 0.00 0.00 36 1008.4
20260504004533 22 168 0.0 0.0 0.00 0.00 0.00 37 1008.4
20260504004030 22 172 0.0 0.0 0.00 0.00 0.00 39 1008.2
20260504003526 22 165 0.0 0.0 0.00 0.00 0.00 37 1008.4
20260504003023 22 163 0.0 3.2 0.00 0.00 0.00 35 1008.6
20260504002520 23 172 0.0 0.0 0.00 0.00 0.00 35 1008.4
20260504002017 23 183 1.6 4.8 0.00 0.00 0.00 34 1008.4
20260504001515 23 172 0.0 0.0 0.00 0.00 0.00 35 1008.6
20260504001011 23 168 0.0 1.6 0.00 0.00 0.00 34 1008.6
20260504000508 23 162 0.0 0.0 0.00 0.00 0.00 34 1008.6
20260504000005 23 178 4.8 6.4 0.00 0.00 0.00 34 1008.8
20260503235504 23 182 3.2 11.3 0.00 0.00 0.00 33 1008.7